TJS-3 AKM

Last updated on Jan. 17, 2021, 6:29 a.m. UTC

1 43917U 18110C   21016.84544157  .00000052  00000-0  00000-0 0  9990
2 43917   0.4137 103.2540 0000726 155.9573 220.6278  1.00274776  7532
UTC
Height (km)
Latitude
Longitude
Inclination
Orbital Period
UTC large
Height (km)
Speed (km/s)
/
Latitude / Longitude
Inclination (degrees)
Orbital Period (minutes)
Azimuth
Elevation
Range (km)
Doppler Factor
iOS Compass Heading
iOS Angle

Next 30 passes for location: Hong Kong

Rise time Rise Azimuth (degrees) Set time Set Azimuth (degrees) Duration Max altitude (degrees)

No matching passes for this satellites